Zurück zum Katalog

METEOR 2-7 DEB

AktivPO
NORAD 35424·DEBRIS·🇷🇺 Russia

Gestartet May 14, 1981 von Plesetsk Cosmodrome

Loading…

Nächste Überflüge (nächste 24 Stunden)

TLE

AktuellSource: Space-Track

Epoche: Sep 14, 2026, 12:50 UTC

1 35424U 81043M   26257.53496279  .00015470  00000-0  23019-2 0  9995
2 35424  81.2413 194.9678 0023165 114.2783 246.0846 14.74673298262478

Verfolge METEOR 2-7 DEB in Echtzeit mit AllMySat

Download on the App Store